sat.trackr.live / text

‹ back to catalog

INTELSAT 904 (IS-904)

NORAD 27380 · 2002-007A

PAYLOAD ACTIVE UNKNOWN

§ Identity

Operator
Country
ITSO
Launch date
2002-02-23
Launch site
FRGUI
Launch vehicle
Mass (kg)
RCS (m²)
23.79

Purposes: comms

External: N2YO · Heavens-Above · Gunter

§ Orbital elements

Epoch: 2026-09-19T20:14:32.498880Z

Period
1,436.09 min
Inclination
7.1504°
Eccentricity
0.0003118
Mean motion
1.00272376 rev/d
Perigee alt
35,773.3 km
Apogee alt
35,799.6 km
Semi-major
42,164.6 km
B*
0.0000e+0
RAAN
68.0077°
Arg perigee
110.0001°
Mean anomaly
92.9158°
Rev number
5,271

§ Raw data

INTELSAT 904 (IS-904)1 27380U 02007A   26262.84343170 -.00000227  00000+0  00000+0 0  99972 27380   7.1504  68.0077 0003118 110.0001  92.9158  1.00272376 52710

JSON: /api/v1/satellites/27380 · /tle

For live sub-satellite position, see the globe view (requires WebGL).

§ Visibility from observer

Set your observer location to see the next 7 days of passes ≥ 10°. The values pass through the URL so the page stays shareable.

No JS? Fill the form by hand. The geolocation button needs JavaScript.